TimeCDT,TemperatureF,Dew PointF,Humidity,Sea Level PressureIn,VisibilityMPH,Wind Direction,Wind SpeedMPH,Gust SpeedMPH,PrecipitationIn,Events,Conditions,WindDirDegrees,DateUTC
12:54 AM,50.0,46.9,89,29.93,10.0,NW,8.1,-,N/A,,Clear,320,2012-09-18 05:54:00
1:54 AM,48.9,46.9,93,29.93,10.0,NW,8.1,-,N/A,,Clear,320,2012-09-18 06:54:00
2:54 AM,48.0,45.0,89,29.93,10.0,NW,6.9,-,N/A,,Clear,310,2012-09-18 07:54:00
3:54 AM,46.9,45.0,93,29.93,10.0,WNW,6.9,-,0.01,,Clear,300,2012-09-18 08:54:00
4:54 AM,46.9,45.0,93,29.94,10.0,WNW,8.1,-,N/A,,Clear,300,2012-09-18 09:54:00
5:54 AM,45.0,43.0,93,29.96,10.0,WNW,5.8,-,N/A,,Clear,300,2012-09-18 10:54:00
6:54 AM,45.0,43.0,93,29.97,10.0,NW,8.1,-,N/A,,Clear,310,2012-09-18 11:54:00
7:54 AM,46.9,43.0,86,29.99,10.0,NW,6.9,-,N/A,,Clear,310,2012-09-18 12:54:00
8:54 AM,51.1,44.1,77,30.00,10.0,NNW,10.4,-,N/A,,Clear,330,2012-09-18 13:54:00
9:54 AM,54.0,44.1,69,30.01,10.0,NNW,6.9,-,N/A,,Clear,330,2012-09-18 14:54:00
10:54 AM,57.9,44.1,60,30.03,10.0,NNW,10.4,-,N/A,,Clear,340,2012-09-18 15:54:00
11:54 AM,61.0,42.1,50,30.03,10.0,North,9.2,-,N/A,,Clear,350,2012-09-18 16:54:00
12:54 PM,63.0,39.0,41,30.03,10.0,NNW,10.4,19.6,N/A,,Scattered Clouds,340,2012-09-18 17:54:00
1:54 PM,64.0,37.9,38,30.02,10.0,NW,12.7,24.2,N/A,,Mostly Cloudy,320,2012-09-18 18:54:00
2:54 PM,64.0,37.0,37,30.02,10.0,NW,9.2,18.4,N/A,,Partly Cloudy,310,2012-09-18 19:54:00
3:54 PM,63.0,36.0,37,30.02,10.0,NW,9.2,-,N/A,,Clear,310,2012-09-18 20:54:00
4:54 PM,64.0,36.0,35,30.01,10.0,NNW,12.7,-,N/A,,Clear,330,2012-09-18 21:54:00
5:54 PM,63.0,36.0,37,30.02,10.0,NW,5.8,-,N/A,,Clear,310,2012-09-18 22:54:00
6:54 PM,60.8,37.4,42,30.03,10.0,WNW,4.6,-,N/A,,Clear,290,2012-09-18 23:54:00
7:54 PM,57.0,36.0,45,30.04,10.0,WNW,3.5,-,N/A,,Clear,290,2012-09-19 00:54:00
8:54 PM,51.1,39.9,66,30.05,10.0,SW,3.5,-,N/A,,Clear,220,2012-09-19 01:54:00
9:54 PM,50.0,39.9,68,30.06,10.0,SSW,3.5,-,N/A,,Clear,210,2012-09-19 02:54:00
10:54 PM,52.0,37.9,59,30.06,10.0,Calm,Calm,-,N/A,,Clear,0,2012-09-19 03:54:00
11:54 PM,48.9,39.0,69,30.07,10.0,Calm,Calm,-,N/A,,Clear,0,2012-09-19 04:54:00